Temperature
13 13 12 12 11 11 11 10 10 10 10 10 10 10 9 9 9 9 9 9 9 9 9 10 10 10 10 11 11 11 12 12 12 13 13 13 13 13 13 14 14 14 15
13 12 12 12 11 11 11 10 10 10 10 10 10 9 9 9 9 9 9 9 9 9 9 9 9 10 10 10 10 11 11 11 12 12 13 13 13 13 13 13 14 14 14
13 12 12 11 11 11 10 10 10 10 10 9 9 9 9 9 9 9 9 9 9 9 9 9 9 9 9 10 10 10 11 11 11 12 12 12 12 12 12 13 13 14 14
13 12 12 11 11 11 10 10 10 10 9 9 9 9 9 9 9 9 9 9 9 9 9 9 9 9 9 9 9 9 10 10 11 11 12 12 12 12 12 13 13 13 13
12 12 12 11 11 10 10 10 10 10 9 9 9 9 9 9 9 9 8 9 8 8 9 9 9 9 9 9 9 10 10 10 11 11 11 12 12 12 12 12 13 13 13
12 12 12 11 11 10 10 10 10 9 9 9 9 9 9 9 9 8 8 8 8 8 8 8 8 8 8 9 9 9 9 9 10 10 11 12 12 12 12 12 12 12 12
12 12 11 11 11 10 10 10 10 9 9 9 9 9 9 8 8 8 8 8 8 8 8 8 8 9 8 8 8 8 9 9 9 9 10 11 11 11 11 12 12 12 12
12 12 11 11 10 10 10 10 9 9 9 9 9 9 9 8 8 8 8 8 8 8 8 8 8 8 8 8 8 8 8 8 9 9 9 10 10 10 11 11 11 11 12
12 12 11 11 10 10 10 10 10 9 9 9 9 9 8 8 8 8 8 7 7 7 7 7 7 7 8 7 7 7 8 8 9 9 9 9 9 10 10 10 11 11 11
12 12 11 11 10 10 10 10 10 9 9 9 9 9 8 8 8 8 8 7 7 7 8 7 7 7 7 7 7 7 7 8 8 9 9 9 9 10 10 10 10 11 11
12 12 11 11 10 10 10 10 10 9 9 9 9 9 8 8 8 8 8 7 7 7 7 7 7 7 7 7 7 7 7 7 8 8 9 9 9 9 10 10 10 11 11
12 11 11 10 10 10 10 10 9 9 9 9 9 8 8 8 8 8 8 7 7 7 7 7 7 7 7 6 6 7 7 7 7 8 8 9 9 10 10 10 10 10 11
12 12 11 11 10 10 10 10 10 9 9 9 9 9 9 9 8 8 8 8 7 7 7 7 7 7 7 6 6 7 7 6 7 7 8 9 9 10 10 10 10 10 10
12 12 11 11 11 10 10 10 10 10 10 10 9 9 9 8 8 8 7 7 7 7 6 6 7 7 7 6 6 6 6 6 7 7 8 9 9 9 10 10 10 10 10
13 12 11 11 11 10 10 10 10 10 9 9 9 9 8 8 8 8 7 7 7 6 6 6 6 7 6 6 6 7 7 7 7 7 8 8 9 9 9 10 10 10 10
12 12 11 11 11 11 11 11 11 10 10 9 9 9 8 8 8 8 8 8 7 7 6 6 6 7 7 7 7 7 7 7 7 7 8 8 9 9 9 9 10 10 10
12 12 11 11 11 11 11 11 11 11 10 10 9 9 8 8 8 8 8 7 7 7 7 7 7 7 7 7 7 7 7 7 7 7 8 8 8 9 9 9 9 10 10
12 12 11 11 11 11 11 11 11 10 10 10 10 9 9 8 8 8 8 7 7 7 7 7 7 7 7 7 7 7 7 7 7 7 8 8 8 9 9 9 9 10 10
12 12 11 11 11 11 11 11 11 10 10 10 10 9 9 8 8 8 8 7 7 8 8 8 7 7 7 7 7 7 7 7 7 8 8 8 8 9 9 9 9 10 9
12 12 12 11 11 11 11 11 11 11 10 10 9 9 9 9 8 8 8 8 8 8 8 8 8 8 7 7 7 7 7 7 8 8 8 8 8 8 9 9 9 10 10
12 12 11 11 11 11 11 11 11 10 10 10 9 9 9 8 8 8 8 8 8 8 8 8 8 8 8 8 8 8 7 8 8 8 8 8 8 8 9 9 9 9 10
11 11 11 11 11 11 11 10 10 10 10 10 9 9 9 8 8 8 8 8 8 8 8 8 8 8 8 8 8 8 8 8 8 8 8 8 8 8 9 9 9 9 9
11 11 11 11 11 11 10 10 10 10 10 10 9 9 9 9 8 8 8 8 8 8 8 8 8 8 8 8 8 8 8 8 8 8 8 8 8 9 9 9 9 9 9
10 11 11 11 11 11 10 10 10 10 10 10 9 9 9 9 8 8 8 8 8 8 8 8 8 7 8 8 8 8 8 8 8 8 8 8 9 9 9 9 9 9 9
10 10 10 11 11 10 10 10 10 9 9 9 9 9 9 8 8 8 8 8 8 8 8 7 7 7 7 7 7 8 8 8 8 8 8 8 8 9 9 9 9 9 9
10 10 10 10 10 10 9 9 9 9 9 9 9 8 8 8 8 8 8 8 8 7 7 7 7 7 7 7 7 7 8 8 8 8 8 8 8 8 9 9 9 9 9
Wind_Speed
5 5 6 6 7 8 8 9 9 9 10 11 11 12 12 12 12 11 12 12 13 13 12 13 13 13 12 11 11 11 12 12 13 12 9 7 6 7 6 6 7 7 8
5 6 7 7 8 9 9 9 9 10 10 11 11 12 12 12 12 12 13 13 13 13 13 13 14 12 13 13 12 13 12 11 12 14 11 8 7 6 6 6 5 4 4
5 6 7 8 9 9 9 10 10 10 11 11 12 12 12 12 12 13 13 13 14 14 14 14 14 14 14 13 13 13 12 12 12 12 12 9 7 6 6 5 4 2 2
6 7 8 8 9 9 10 10 10 11 11 12 12 12 12 13 13 13 13 13 13 14 14 14 14 14 14 14 13 14 13 13 12 12 12 10 8 7 6 5 4 3 3
6 8 8 8 9 9 10 10 10 11 12 12 12 12 13 12 12 11 12 13 13 14 14 14 15 14 13 12 12 12 13 12 12 12 12 11 10 7 7 6 5 3 2
7 8 8 9 9 10 10 10 11 11 11 11 12 13 13 12 5 4 11 14 14 15 15 15 15 15 15 16 17 17 16 15 14 13 12 12 11 10 7 6 6 4 4
7 8 9 9 9 10 10 11 11 11 12 12 12 13 13 12 7 9 10 12 15 15 15 14 14 14 13 15 16 20 21 21 19 17 16 14 12 10 9 8 7 7 5
7 8 9 9 10 10 10 11 11 11 11 12 12 13 13 12 7 9 10 13 15 16 15 16 15 15 14 14 15 16 16 18 19 18 17 16 14 10 9 8 6 6 4
8 8 9 9 10 10 11 11 11 11 12 12 12 12 13 12 9 8 10 12 13 15 15 15 15 15 13 10 15 16 16 15 16 16 15 13 9 7 7 7 7 6 5
8 8 9 9 10 11 11 12 11 11 12 12 12 12 13 13 8 7 8 11 12 12 12 12 13 14 12 9 14 15 16 16 15 14 15 15 15 14 12 12 10 9 6
8 8 9 9 10 11 11 11 11 11 12 12 13 13 12 12 10 9 9 9 11 12 11 11 10 8 11 12 13 15 15 13 13 13 13 14 14 14 14 14 13 10 9
8 9 10 10 10 10 11 11 11 11 12 12 11 12 10 9 8 7 8 11 12 12 12 11 8 3 8 11 12 13 12 11 12 11 11 12 13 13 13 14 14 13 10
9 10 10 10 10 10 11 11 11 11 11 11 11 11 10 9 7 8 11 12 12 11 11 10 10 10 10 11 15 15 12 12 12 12 12 12 12 12 11 11 12 11 10
10 10 10 10 11 10 9 10 10 10 10 11 11 11 11 10 9 7 7 7 10 11 11 10 13 14 13 11 9 11 12 12 12 12 12 11 10 10 10 10 10 10 9
10 10 10 11 10 10 10 9 11 10 9 10 11 11 11 12 8 6 9 9 9 8 9 9 9 8 8 8 9 9 10 11 12 12 11 10 10 10 10 10 9 10 10
10 10 9 9 9 9 10 10 10 12 11 14 16 14 12 13 13 12 12 12 12 9 8 10 10 9 8 8 8 9 9 10 11 11 10 10 11 11 11 10 10 10 10
11 10 10 10 9 10 10 10 11 10 13 17 17 17 16 16 14 14 13 12 13 10 9 10 10 9 8 8 8 8 9 9 9 9 10 10 10 10 10 11 11 10 11
12 11 10 10 10 10 10 11 11 11 11 10 9 14 16 16 15 14 12 9 9 9 10 10 9 8 7 7 7 7 8 8 8 9 10 10 10 10 11 11 11 11 11
12 11 10 10 10 11 11 11 11 11 11 10 10 7 10 12 14 13 10 8 9 8 8 9 8 8 7 7 7 7 7 7 8 9 9 9 9 9 10 10 10 11 11
12 13 11 10 11 11 10 11 10 10 10 9 9 9 7 8 8 6 7 8 8 8 8 8 7 7 6 6 6 6 7 8 8 8 9 9 9 10 11 11 10 10 11
11 10 12 11 12 11 10 10 10 10 10 9 9 7 6 9 9 8 7 7 7 7 7 7 7 7 7 6 6 7 8 7 8 8 9 9 10 10 9 10 10 10 10
11 11 10 11 10 10 10 10 10 10 10 10 9 7 4 7 7 7 7 7 7 6 6 6 6 6 6 6 6 6 7 8 8 8 8 9 9 9 10 9 9 9 10
11 12 12 11 10 9 10 11 10 9 9 8 8 7 6 6 7 7 7 6 6 6 5 5 6 6 5 5 5 6 6 6 7 7 8 8 9 9 9 9 10 10 10
12 12 12 11 10 10 10 9 9 9 8 7 7 7 7 7 7 7 7 6 6 6 5 5 6 6 6 5 4 5 5 4 5 6 8 8 8 8 9 9 10 11 11
12 12 12 11 10 10 9 8 8 7 7 6 6 6 6 6 6 6 6 6 6 5 6 5 4 5 5 5 5 4 1 1 3 4 6 7 8 9 9 10 10 11 11
12 11 11 10 9 8 7 7 7 7 6 5 5 5 5 5 5 5 5 5 6 5 5 4 4 5 5 4 2 2 1 2 3 5 6 7 8 8 9 8 11 11 12
Wind_Direction
253 261 272 276 283 284 283 285 287 286 287 283 284 284 282 279 275 269 267 271 266 265 264 260 258 261 265 265 260 257 255 255 263 271 272 271 275 283 284 272 248 239 225
260 264 267 275 281 284 286 289 288 286 285 285 285 283 282 281 278 273 269 269 267 265 264 264 263 260 256 258 262 261 259 259 260 267 273 270 263 267 274 271 256 238 229
266 268 272 279 284 285 289 290 288 287 287 287 285 282 282 282 280 276 273 270 268 267 265 263 262 261 260 258 258 259 258 254 252 258 262 264 262 255 261 258 248 232 216
274 277 281 285 288 288 290 290 289 289 289 287 286 284 283 282 279 276 274 273 271 269 266 263 261 259 257 257 257 255 258 259 255 255 257 255 250 244 240 242 238 226 204
278 283 287 289 289 287 288 289 290 290 289 289 288 285 283 281 276 280 284 280 276 272 269 265 261 259 266 265 264 262 258 254 254 250 251 250 246 238 238 232 230 215 209
276 284 290 291 289 289 291 291 292 292 292 290 287 287 286 284 309 299 281 283 280 275 272 269 266 255 245 237 246 258 265 262 260 258 253 250 249 243 239 236 223 209 213
276 284 289 290 290 292 295 297 297 297 295 292 290 288 287 287 274 257 258 273 275 273 271 270 267 264 252 250 238 233 242 246 252 259 261 260 256 243 238 231 223 215 216
277 285 289 291 291 293 295 297 298 297 297 294 292 292 290 289 272 258 258 266 269 269 268 268 266 268 264 263 262 254 248 240 235 237 247 254 257 259 241 234 235 219 201
279 286 291 293 293 293 296 300 301 298 296 295 294 293 290 287 266 251 260 278 272 271 270 269 268 267 261 252 259 260 258 254 243 237 241 249 266 274 253 235 218 210 204
283 288 291 290 288 291 295 298 298 296 293 296 297 295 290 288 279 250 254 276 278 278 276 272 260 256 269 253 255 256 255 253 252 235 224 230 237 234 224 231 226 214 205
285 286 286 286 286 286 290 291 293 293 295 295 294 293 288 283 274 246 239 269 281 285 283 280 278 232 238 245 250 256 258 265 259 249 241 231 226 226 222 219 219 216 210
281 282 284 286 287 290 290 289 290 292 292 291 293 294 292 283 270 258 234 248 271 279 280 280 284 259 248 248 247 251 252 255 252 248 240 234 228 222 218 214 212 213 211
274 278 282 285 284 284 286 288 289 288 291 298 302 301 301 301 282 226 236 245 248 261 275 286 289 278 267 252 241 239 237 236 238 238 236 233 229 226 218 207 207 204 200
268 274 278 280 282 283 283 285 290 296 297 301 303 303 303 300 297 294 284 266 242 249 266 265 245 246 249 256 247 223 227 231 231 233 235 233 227 219 214 207 201 192 192
264 270 275 277 280 285 282 282 286 289 292 291 298 301 300 298 316 340 305 296 295 303 305 285 274 259 245 239 236 232 227 222 225 230 231 230 224 215 211 205 198 193 193
262 266 273 277 282 283 286 287 258 250 254 246 250 264 282 280 291 290 280 273 273 276 277 269 269 265 259 251 243 233 225 223 224 224 225 225 221 214 208 204 200 198 196
257 267 274 278 280 281 285 289 294 277 241 238 241 244 248 268 278 277 274 271 263 249 251 261 263 262 258 254 248 241 233 226 222 220 220 221 220 215 209 204 200 200 199
254 259 259 267 272 277 282 284 286 291 297 298 257 231 237 247 257 261 261 264 260 234 248 258 259 258 254 249 244 239 236 229 220 217 218 218 217 213 209 207 204 201 198
252 258 259 265 271 274 277 279 281 286 291 299 306 284 232 240 240 243 235 251 269 270 263 261 259 255 252 249 240 232 228 225 218 213 216 215 213 212 210 208 207 198 200
250 247 250 263 268 271 273 277 281 286 290 297 301 305 305 293 290 273 248 260 269 273 272 271 265 258 253 252 246 237 228 224 219 214 213 212 213 213 211 209 206 201 200
260 250 218 245 259 267 274 279 283 286 290 296 299 308 308 299 296 295 290 285 283 280 277 276 271 261 253 249 243 238 233 228 221 217 213 210 209 209 209 209 207 207 203
261 263 259 254 261 267 273 278 280 282 285 291 298 299 251 280 295 295 293 290 291 287 278 272 270 264 258 251 244 240 237 230 224 217 211 208 206 207 206 205 205 204 202
260 261 261 257 258 258 259 266 272 277 282 290 302 308 305 302 301 301 301 299 297 298 292 279 274 271 266 258 251 246 242 234 228 218 208 206 207 206 204 201 202 199 199
263 260 261 260 259 261 264 269 271 275 282 291 300 306 306 307 306 306 307 307 304 303 298 289 283 284 281 269 253 246 242 244 241 231 222 216 213 210 207 200 200 201 200
271 265 262 261 261 261 265 270 273 280 287 292 297 303 307 310 313 314 316 315 311 308 306 300 292 290 285 276 262 254 290 322 285 270 232 226 222 214 209 204 198 195 194
272 268 265 264 262 263 267 272 275 278 282 289 296 306 311 313 318 320 324 327 324 327 325 317 313 304 293 279 293 352 341 281 266 276 258 231 225 218 210 208 204 197 192
Height
1525 1523 1522 1521 1520 1519 1517 1515 1513 1511 1509 1507 1505 1503 1501 1500 1498 1496 1495 1494 1493 1492 1491 1490 1490 1489 1489 1489 1489 1489 1488 1488 1486 1485 1485 1483 1482 1481 1481 1481 1481 1482 1484
1521 1520 1519 1517 1516 1514 1513 1511 1509 1507 1505 1503 1500 1498 1496 1494 1492 1491 1489 1488 1487 1486 1485 1485 1484 1484 1483 1483 1483 1483 1483 1482 1482 1480 1480 1479 1478 1477 1477 1477 1477 1478 1479
1518 1517 1515 1514 1512 1511 1509 1507 1505 1502 1500 1498 1495 1493 1491 1489 1487 1485 1484 1482 1481 1480 1479 1479 1478 1478 1477 1477 1476 1477 1477 1477 1476 1476 1475 1475 1474 1474 1473 1473 1473 1474 1475
1515 1513 1512 1510 1509 1507 1505 1502 1500 1498 1495 1493 1490 1488 1485 1483 1481 1480 1478 1477 1475 1474 1473 1472 1472 1471 1471 1470 1470 1470 1470 1471 1471 1471 1470 1470 1470 1470 1469 1469 1470 1471 1471
1511 1510 1509 1507 1505 1503 1501 1498 1496 1493 1491 1488 1485 1482 1480 1478 1476 1475 1473 1471 1470 1468 1466 1465 1465 1464 1464 1464 1465 1465 1465 1465 1465 1465 1465 1465 1465 1465 1466 1466 1466 1467 1468
1507 1506 1505 1503 1501 1499 1497 1494 1492 1489 1486 1483 1480 1477 1475 1473 1471 1468 1466 1464 1463 1461 1460 1458 1458 1457 1456 1456 1456 1457 1458 1459 1459 1460 1460 1460 1460 1461 1462 1462 1463 1464 1465
1504 1503 1501 1499 1497 1495 1493 1491 1488 1484 1481 1478 1475 1472 1469 1467 1464 1462 1460 1458 1456 1455 1453 1452 1451 1451 1450 1450 1449 1449 1449 1450 1452 1453 1454 1454 1456 1457 1457 1458 1459 1460 1462
1500 1499 1498 1495 1493 1491 1489 1486 1483 1480 1477 1473 1470 1467 1463 1461 1458 1456 1453 1451 1449 1448 1446 1445 1443 1443 1443 1443 1443 1443 1442 1443 1444 1445 1446 1448 1451 1452 1452 1453 1454 1456 1459
1497 1495 1494 1491 1489 1487 1484 1481 1478 1475 1472 1468 1465 1461 1458 1455 1452 1450 1447 1445 1443 1441 1440 1438 1436 1435 1435 1435 1435 1435 1435 1436 1437 1438 1440 1442 1444 1445 1447 1450 1451 1452 1454
1493 1491 1489 1487 1484 1482 1479 1476 1474 1470 1467 1464 1460 1456 1453 1450 1447 1444 1442 1439 1438 1435 1433 1431 1429 1428 1428 1427 1427 1427 1427 1429 1431 1432 1432 1434 1436 1439 1441 1444 1446 1448 1450
1489 1486 1484 1482 1480 1477 1475 1472 1469 1466 1462 1459 1455 1451 1448 1444 1442 1439 1436 1434 1432 1430 1427 1425 1424 1422 1420 1420 1420 1420 1420 1422 1423 1425 1426 1428 1430 1432 1435 1437 1440 1443 1446
1484 1482 1480 1478 1476 1474 1470 1467 1464 1461 1457 1454 1450 1447 1443 1440 1437 1434 1431 1429 1426 1424 1421 1420 1418 1416 1414 1413 1412 1412 1413 1415 1417 1419 1420 1421 1423 1426 1428 1432 1434 1437 1441
1479 1477 1475 1473 1471 1468 1466 1463 1460 1457 1454 1450 1447 1443 1439 1436 1433 1429 1426 1423 1421 1418 1416 1414 1412 1409 1408 1406 1405 1406 1407 1408 1411 1412 1413 1415 1418 1420 1423 1426 1429 1432 1436
1474 1472 1470 1468 1466 1464 1461 1459 1456 1453 1450 1446 1443 1439 1435 1432 1429 1425 1422 1419 1416 1413 1411 1408 1405 1403 1402 1401 1400 1400 1400 1402 1404 1406 1408 1410 1412 1415 1417 1420 1423 1426 1431
1469 1467 1466 1464 1462 1459 1457 1454 1451 1448 1445 1441 1438 1434 1430 1427 1424 1420 1418 1415 1412 1410 1406 1404 1402 1400 1397 1396 1395 1395 1395 1397 1398 1400 1402 1404 1407 1410 1413 1416 1419 1422 1426
1464 1463 1462 1460 1457 1455 1452 1449 1446 1443 1439 1436 1432 1428 1424 1421 1418 1415 1412 1409 1406 1404 1401 1399 1397 1395 1393 1391 1391 1390 1390 1391 1393 1395 1397 1399 1402 1405 1408 1411 1414 1417 1421
1459 1458 1456 1455 1452 1450 1447 1444 1441 1438 1434 1430 1427 1423 1419 1416 1413 1410 1407 1404 1402 1399 1396 1394 1393 1391 1389 1387 1387 1386 1387 1387 1388 1390 1392 1395 1397 1400 1403 1406 1410 1413 1416
1453 1452 1450 1448 1446 1444 1442 1439 1436 1433 1430 1426 1422 1418 1414 1411 1408 1405 1402 1400 1397 1394 1392 1390 1388 1386 1385 1384 1383 1382 1383 1384 1385 1386 1388 1391 1393 1396 1399 1402 1405 1409 1412
1447 1446 1445 1443 1441 1439 1436 1434 1431 1428 1424 1421 1417 1414 1410 1406 1403 1401 1398 1395 1393 1391 1388 1386 1384 1382 1381 1380 1379 1379 1379 1380 1381 1383 1385 1387 1389 1392 1395 1398 1401 1404 1408
1440 1439 1438 1436 1435 1433 1431 1428 1426 1423 1420 1416 1413 1410 1406 1403 1400 1397 1394 1391 1389 1387 1384 1382 1380 1379 1377 1377 1376 1376 1376 1377 1378 1380 1381 1383 1386 1389 1392 1395 1397 1400 1403
1434 1433 1431 1429 1428 1427 1425 1423 1420 1418 1415 1411 1409 1405 1402 1399 1396 1393 1390 1388 1385 1383 1380 1378 1376 1375 1374 1373 1373 1373 1374 1374 1375 1377 1378 1380 1383 1386 1388 1391 1394 1396 1399
1428 1427 1425 1424 1423 1421 1419 1418 1415 1413 1410 1407 1404 1401 1398 1395 1392 1390 1387 1384 1382 1379 1377 1375 1373 1372 1372 1371 1371 1371 1371 1372 1373 1374 1376 1378 1380 1382 1385 1387 1390 1393 1395
1420 1419 1419 1418 1416 1415 1413 1412 1410 1408 1405 1403 1400 1398 1395 1392 1389 1386 1384 1381 1379 1377 1374 1372 1371 1370 1369 1368 1368 1368 1369 1369 1370 1372 1373 1375 1377 1380 1382 1384 1386 1389 1392
1414 1413 1412 1411 1410 1409 1407 1406 1405 1403 1401 1399 1397 1394 1391 1388 1386 1383 1381 1379 1376 1374 1372 1370 1368 1367 1366 1366 1365 1366 1366 1367 1368 1369 1371 1373 1375 1377 1379 1381 1383 1386 1389
1408 1407 1406 1405 1404 1403 1402 1401 1399 1398 1397 1395 1393 1391 1389 1386 1383 1381 1379 1376 1374 1372 1369 1367 1366 1365 1364 1363 1363 1363 1364 1364 1365 1367 1369 1370 1372 1374 1376 1378 1381 1383 1386
1402 1401 1400 1398 1398 1397 1397 1396 1395 1394 1393 1392 1390 1388 1386 1383 1381 1379 1377 1374 1372 1370 1368 1366 1364 1362 1361 1361 1360 1360 1360 1361 1363 1364 1366 1368 1370 1371 1373 1375 1378 1380 1383